Location: Unspecified
(22.6800°N, 112.2000°E)
Time: 01:02:53
(UTC+08:00)

Courier 1B Rocket - Pass Details

Date: 05 August 2021
Orbit: 920 x 1202 km, 28.3° (Epoch: 17 September)

Event Time Altitude Azimuth Distance (km) Brightness Sun altitude
Exits shadow 03:50:39 42° 311° (NW) 1,367 5.6 -28.3°
Maximum altitude 03:52:43 60° 9° (N) 1,090 5.3 -27.9°
Drops below altitude 10° 03:58:58 10° 89° (E) 2,630 8.0 -26.7°
Sets 04:01:34 0° 93° (E) 3,557 8.7 -26.2°
